CW3442 Weather Reports


Display with metric or nautical units.
time (UTC)temp
F
wind
direction
speed
MPH
gust
MPH
rain 1hr
in
rain 24hr
in
rain mn
in
humidity
%
barometer
mb
20260903013531 65 96 0.0 0.0 0.00 0.00 0.00 91 1008.3
20260903010532 66 198 0.0 0.0 0.00 0.00 0.00 90 1007.8
20260903003527 67 76 0.0 0.0 0.00 0.00 0.00 88 1008.0
20260903000531 69 10 0.0 0.0 0.00 0.00 0.00 83 1008.1
20260902233529 70 45 0.0 0.0 0.00 0.00 0.00 81 1007.8
20260902230534 71 105 1.0 0.0 0.00 0.00 0.00 77 1007.9
20260902223551 72 289 1.0 0.0 0.00 0.00 0.00 76 1008.4
20260902220527 72 168 0.0 0.0 0.00 0.00 0.00 75 1008.7
20260902213526 72 275 0.0 0.0 0.00 0.00 0.00 75 1009.2
20260902210539 72 105 1.0 0.0 0.00 0.00 0.00 75 1009.7
20260902203559 72 248 0.0 0.0 0.00 0.00 0.00 78 1010.2
20260902200527 74 117 0.0 0.0 0.00 0.00 0.00 73 1010.2
20260902193526 74 99 0.0 0.0 0.00 0.00 0.00 74 1010.7
20260902190527 74 257 1.0 0.0 0.00 0.00 0.00 73 1011.0
20260902183547 75 104 1.0 0.0 0.00 0.00 0.00 72 1011.6
20260902180539 75 79 1.0 0.0 0.00 0.00 0.00 73 1011.7
20260902173601 75 142 1.0 0.0 0.00 0.00 0.00 72 1011.7
20260902170600 75 330 0.0 0.0 0.00 0.00 0.00 73 1012.1
20260902163549 74 35 0.0 0.0 0.00 0.00 0.00 74 1012.4
20260902160602 71 88 0.0 0.0 0.00 0.00 0.00 80 1013.0
20260902153521 68 88 0.0 0.0 0.00 0.00 0.00 82 1013.3
20260902150542 67 88 0.0 0.0 0.00 0.00 0.00 81 1013.9
20260902143539 67 88 0.0 0.0 0.00 0.00 0.00 81 1013.7
20260902140556 66 88 0.0 0.0 0.00 0.00 0.00 81 1013.4
20260902133528 64 84 0.0 0.0 0.00 0.00 0.00 82 1013.6
20260902130540 62 81 0.0 0.0 0.00 0.00 0.00 83 1013.7
20260902123524 61 81 0.0 0.0 0.00 0.00 0.00 83 1013.7
20260902120537 60 71 0.0 0.0 0.00 0.00 0.00 83 1013.5
20260902113527 58 109 0.0 0.0 0.00 0.00 0.00 84 1013.7
20260902110526 57 125 0.0 0.0 0.00 0.00 0.00 85 1013.9
20260902103539 55 125 0.0 0.0 0.00 0.00 0.00 85 1014.4
20260902100601 55 125 0.0 0.0 0.00 0.00 0.00 84 1014.2
20260902093538 56 125 0.0 0.0 0.00 0.00 0.00 83 1013.9
20260902090529 56 125 0.0 0.0 0.00 0.00 0.00 82 1014.0
20260902083535 57 125 0.0 0.0 0.00 0.00 0.00 81 1013.9
20260902080550 57 125 0.0 0.0 0.00 0.00 0.00 80 1014.1
20260902073526 58 125 0.0 0.0 0.00 0.00 0.00 79 1013.9
20260902070602 58 130 0.0 0.0 0.00 0.00 0.00 78 1013.8
20260902063542 59 130 0.0 0.0 0.00 0.00 0.00 77 1013.8
20260902060524 59 113 0.0 0.0 0.00 0.00 0.00 77 1014.0
20260902053555 60 113 0.0 0.0 0.00 0.00 0.00 77 1014.1
20260902050537 61 113 0.0 0.0 0.00 0.00 0.00 76 1014.1
20260902043535 62 113 0.0 0.0 0.00 0.00 0.00 76 1013.8
20260902040535 62 113 0.0 0.0 0.00 0.00 0.00 78 1013.7
20260902033553 62 113 0.0 0.0 0.00 0.00 0.00 80 1013.5
20260902030544 63 113 0.0 0.0 0.00 0.00 0.00 81 1013.3
20260902023558 64 113 0.0 0.0 0.00 0.00 0.00 80 1013.3
20260902020553 65 113 0.0 0.0 0.00 0.00 0.00 77 1013.1